Date,TemperatureHighF,TemperatureAvgF,TemperatureLowF,DewpointHighF,DewpointAvgF,DewpointLowF,HumidityHigh,HumidityAvg,HumidityLow,PressureMaxIn,PressureMinIn,WindSpeedMaxMPH,WindSpeedAvgMPH,GustSpeedMaxMPH,PrecipitationSumIn
2013-3-1,30,27,24,27,23,20,88,84,79,30.21,30.06,7,4,14,0.03
2013-3-2,30,24,14,20,17,8,83,75,65,30.23,30.18,6,3,14,0.01
2013-3-3,31,20,10,18,12,6,87,72,49,30.21,30.11,3,0,8,0.00
2013-3-4,33,29,21,28,24,16,86,82,78,30.13,29.92,14,8,22,0.00
2013-3-5,33,30,26,31,28,24,93,91,85,30.02,29.80,7,2,12,0.18
2013-3-6,31,27,25,26,24,21,92,86,81,30.35,30.02,5,1,12,0.08
2013-3-7,37,28,22,27,23,19,89,81,64,30.44,30.35,3,1,6,0.01
2013-3-8,39,29,18,33,25,16,91,86,74,30.48,30.28,8,3,14,0.01
2013-3-9,48,40,33,40,34,29,86,80,68,30.29,29.80,9,6,20,0.06
2013-3-10,52,48,44,49,45,39,94,88,75,29.81,29.58,12,4,21,0.80
2013-3-11,48,36,31,46,34,27,93,89,84,29.89,29.59,8,5,19,0.04
2013-3-12,40,31,26,31,25,19,90,79,64,30.12,29.89,8,5,19,0.01
2013-3-13,35,27,22,22,19,17,85,71,51,30.38,30.11,8,4,17,0.01
2013-3-14,41,31,21,31,24,17,86,76,59,30.38,30.10,8,3,15,0.00
2013-3-15,53,40,30,45,35,27,90,82,65,30.11,29.67,6,2,10,0.00
2013-3-16,41,35,30,39,31,25,94,86,74,30.11,29.64,8,4,15,0.00
2013-3-17,36,32,28,29,26,23,84,79,73,30.17,29.92,13,8,21,0.00
2013-3-18,38,32,24,34,28,15,93,86,67,29.93,29.67,12,7,22,0.03
2013-3-19,40,28,19,19,15,11,75,59,36,30.17,29.91,10,5,22,0.01
2013-3-20,29,23,15,19,10,5,74,59,43,30.19,30.09,10,5,19,0.00
2013-3-21,36,23,12,16,11,7,81,61,37,30.13,30.03,6,1,13,0.00
2013-3-22,44,29,13,25,17,10,91,63,35,30.10,30.01,4,1,9,0.00
2013-3-23,46,36,27,28,25,22,84,65,45,30.11,29.96,10,4,15,0.00
2013-3-24,31,29,27,28,27,24,94,90,74,29.98,29.61,12,8,18,0.02
2013-3-25,35,30,26,29,26,23,93,86,77,30.12,29.72,7,4,18,0.15
2013-3-26,38,33,30,27,25,22,80,72,53,30.30,30.13,4,2,12,0.01
2013-3-27,43,34,26,28,24,21,86,67,43,30.37,30.30,4,1,9,0.01
2013-3-28,49,37,25,33,26,20,83,68,47,30.39,30.29,3,0,7,0.00
2013-3-29,56,42,33,38,32,28,87,68,40,30.32,30.21,5,1,9,0.00
2013-3-30,54,44,29,43,35,-100,91,76,54,30.22,29.89,11,3,17,0.00
2013-3-31,61,49,40,45,39,27,92,70,41,29.92,29.77,10,4,20,0.00